Weather History for KMQE - August, 2014

Change the Weather History Date:

Friday, August 8, 2014

  Actual Average (KBOS) Record (KBOS)
Temperature  
Mean Temperature 68 °F 73 °F  
Max Temperature 82 °F 81 °F 96 °F (1983)
Min Temperature 55 °F 66 °F 52 °F (1903)
Degree Days  
Heating Degree Days 0 0  
Month to date heating degree days 0  
Since 1 June heating degree days 61  
Since 1 July heating degree days 6  
Cooling Degree Days 3 8  
Month to date cooling degree days 68  
Year to date cooling degree days 500  
Since 1 June cooling degree days 470  
Growing Degree Days 18 (Base 50)    
Moisture  
Dew Point 54 °F    
Average Humidity 62    
Maximum Humidity 90    
Minimum Humidity 35    
Precipitation  
Precipitation 0.00 in 0.11 in 1.94 in (1874)
Month to date precipitation 0.97  
Year to date precipitation 26.24  
Sea Level Pressure  
Sea Level Pressure 30.01 in    
Wind  
Wind Speed 10 mph (NW)    
Max Wind Speed 13 mph    
Max Gust Speed 18 mph    
T = Trace of Precipitation, MM = Missing Value Source: NWS Daily Summary

Daily Weather History Graph

Daily Weather History Graph

Search for Another Location

Airport or City:

Trip Planner

Search our weather history database for the weather conditions in past years. The results will help you decide how hot, cold, wet, or windy it might be!

Date:

Astronomy

Aug. 08, 2014 Rise Set
Actual Time 5:44 AM EDT 7:54 PM EDT
Civil Twilight 5:13 AM EDT 8:25 PM EDT
Nautical Twilight 4:35 AM EDT 9:03 PM EDT
Astronomical Twilight 3:53 AM EDT 9:45 PM EDT
Moon 6:04 PM EDT (8/8) 3:12 AM EDT (8/8)
Length of Visible Light 15h 12m
Length of Day
14h 10m
Waxing Gibbous, 93% of the Moon is Illuminated
Aug 8
Waxing Gibbous
Aug 10
Full
Aug 17
Last Quarter
Aug 25
New
Sep 2
First Quarter

Hourly Weather History & Observations

Time (EDT) Temp. Heat Index Dew Point Humidity Pressure Visibility Wind Dir Wind Speed Gust Speed Precip Events Conditions
12:54 AM 57.9 °F - 52.0 °F 81% 29.97 in - WNW 10.4 mph - N/A   Unknown
1:54 AM 57.9 °F - 52.0 °F 81% 29.96 in - NW 12.7 mph - N/A   Unknown
2:54 AM 57.9 °F - 52.0 °F 81% 29.96 in - NW 12.7 mph - N/A   Unknown
3:54 AM 57.0 °F - 52.0 °F 83% 29.97 in - WNW 8.1 mph - N/A   Unknown
4:54 AM 55.9 °F - 52.0 °F 87% 29.98 in - NW 10.4 mph - N/A   Unknown
5:54 AM 55.9 °F - 53.1 °F 90% 30.01 in - NW 11.5 mph - N/A   Unknown
6:54 AM 57.0 °F - 53.1 °F 87% 30.02 in - NW 11.5 mph - N/A   Unknown
7:54 AM 62.1 °F - 55.0 °F 78% 30.03 in - NW 10.4 mph - N/A   Unknown
8:54 AM 66.0 °F - 55.9 °F 70% 30.04 in - NW 6.9 mph - N/A   Unknown
9:54 AM 70.0 °F - 55.9 °F 61% 30.04 in - NNW 8.1 mph - N/A   Unknown
10:54 AM 73.9 °F - 55.9 °F 53% 30.04 in - North - - N/A   Unknown
11:54 AM 75.9 °F - 55.0 °F 48% 30.03 in - Variable 4.6 mph - N/A   Unknown
12:54 PM 77.0 °F - 54.0 °F 45% 30.03 in - Variable 6.9 mph - N/A   Unknown
1:54 PM 80.1 °F 79.9 °F 53.1 °F 39% 30.01 in - Variable 6.9 mph - N/A   Unknown
2:54 PM 81.0 °F 80.5 °F 54.0 °F 39% 30.01 in - WNW 10.4 mph - N/A   Unknown
3:54 PM 81.0 °F - 52.0 °F 36% 30.00 in - NW 9.2 mph - N/A   Unknown
4:54 PM 81.0 °F - 51.1 °F 35% 30.00 in - West 10.4 mph - N/A   Unknown
5:54 PM 78.1 °F - 52.0 °F 40% 30.00 in - WNW 12.7 mph 18.4 mph N/A   Unknown
6:54 PM 75.0 °F - 54.0 °F 48% 30.02 in - WNW 10.4 mph 18.4 mph N/A   Unknown
7:54 PM 72.0 °F - 55.0 °F 55% 30.04 in - NW 5.8 mph - N/A   Unknown
8:54 PM 70.0 °F - 55.9 °F 61% 30.04 in - WNW 8.1 mph - N/A   Unknown
9:54 PM 68.0 °F - 55.0 °F 63% 30.05 in - WNW 9.2 mph - N/A   Unknown
10:54 PM 66.9 °F - 55.0 °F 66% 30.05 in - WNW 9.2 mph - N/A   Unknown
11:54 PM 66.0 °F - 55.9 °F 70% 30.05 in - NW 11.5 mph - N/A   Unknown